Погода в Сен-Дени

Реюньон     20°53′33″S   55°28′15″E
темп.,
°C
ветер,
м/с
пор.,
м/с
влажн.,
%
обл.,
%
осадки,
мм/ч
давл.,
гПа
погр.,
м
5 августа, чт
чт501:00+12юв348443 0.1 1027271
04:00+11юв348520 0.2 1027246
07:00+11юв458824 0.1 1028236
10:00+14вюв457427 0.2 1028736
13:00+16вюв346645 0.1 10261002
16:00+15вюв347247 0.1 1025862
19:00+13вюв347722 0.0 1026311
22:00+12юв458418 0.1 1027347
6 августа, пт
пт601:00+11юв358323 0.1 1027171
04:00+12юв348820 0.1 1025261
07:00+11ююв34801 0.0 1026120
10:00+15вюв34718 0.1 1027668
13:00+17в336315 0.1 1024969
16:00+16всв337547 0.2 1023717
19:00+14в348631 0.3 1025421
22:00+13вюв348728 0.4 1026270
7 августа, сб
сб701:00+13вюв348943 0.1 1025243
04:00+13вюв348732 0.4 1024270
07:00+12юв458827 0.1 1024176
10:00+16вюв347315 0.1 1025656
13:00+18в336544 0.1 1023850
16:00+16вюв348148 0.4 1022475
19:00+15вюв348559 0.4 1023384
22:00+14вюв348966 1.2 1024298
8 августа, вс
вс801:00+14вюв349054 1.1 1023252
04:00+14вюв238942 1.8 1022264
07:00+13юв228328 0.1 1023137
10:00+18всв22530 0.1 1024618
13:00+20св33570 0.0 1021910
16:00+18всв337335 0.1 1020812
19:00+16в238875 0.2 1022291
22:00+16всв239247 0.3 1023298
9 августа, пн
пн901:00+16вюв119082 0.4 1022117
04:00+15юв128894 1.6 1021130
07:00+16юв118783 1.4 102283
10:00+18всв227954 1.6 1023560
13:00+17вюв2386100 0.9 1022284
16:00+17в448598 1.3 1020458
19:00+16вюв459494 0.9 1022242
22:00+16вюв349253 1.0 1023210